Flight Briefing for CPX716

Departure Arrival
General Omar Torrijos International Airport (MPTO)
Click to view FAA NOTAMS
Miami International Airport (KMIA)
Click to view FAA NOTAMS
Departure Time Arrival Time
N/A N/A
Aircraft Distance
B767-300BDSF 1007nm
Departure METAR Arrival METAR
MPTO 260000Z 04011KT 9999 FEW020 28/21 Q1008 NOSIG KMIA 252353Z 12005KT 10SM FEW025 24/19 A3003 RMK AO2 SLP168 60042 T02390194 10272 20228 55000
Suggested Route
TASNO UL780 URSUS FLIPR6


View recent IFR Routes data
Notes



Charts and Procedures

Charts for MPTO
No chart available
Charts for KMIA
No chart available

Windy.com Weather Map